| time (UTC) | temp F | wind direction | speed MPH | gust MPH | rain 1hr in | rain 24hr in | rain mn in | humidity % | barometer mb |
| 20260906220626 | 78 | 308 | 2.0 | 3.0 | 0.00 | 0.00 | 0.00 | 69 | 1024.2 |
| 20260906220129 | 78 | 303 | 2.0 | 3.0 | 0.00 | 0.00 | 0.00 | 69 | 1024.1 |
| 20260906215626 | 78 | 303 | 2.0 | 3.0 | 0.00 | 0.00 | 0.00 | 69 | 1024.2 |
| 20260906215125 | 78 | 359 | 2.0 | 3.0 | 0.00 | 0.00 | 0.00 | 69 | 1024.1 |
| 20260906214625 | 78 | 359 | 2.0 | 3.0 | 0.00 | 0.00 | 0.00 | 69 | 1024.2 |
| 20260906214125 | 78 | 359 | 2.0 | 3.0 | 0.00 | 0.00 | 0.00 | 68 | 1024.2 |
| 20260906213626 | 78 | 359 | 2.0 | 3.0 | 0.00 | 0.00 | 0.00 | 68 | 1024.2 |
| 20260906213123 | 78 | 359 | 2.0 | 3.0 | 0.00 | 0.00 | 0.00 | 68 | 1024.2 |
| 20260906212621 | 78 | 359 | 2.0 | 3.0 | 0.00 | 0.00 | 0.00 | 68 | 1024.2 |
| 20260906212120 | 78 | 359 | 2.0 | 3.0 | 0.00 | 0.00 | 0.00 | 68 | 1024.1 |
| 20260906211619 | 78 | 359 | 2.0 | 3.0 | 0.00 | 0.00 | 0.00 | 68 | 1024.1 |
| 20260906211117 | 78 | 359 | 2.0 | 3.0 | 0.00 | 0.00 | 0.00 | 68 | 1024.1 |
| 20260906210616 | 79 | 359 | 2.0 | 3.0 | 0.00 | 0.00 | 0.00 | 68 | 1024.2 |
| 20260906210116 | 79 | 359 | 2.0 | 3.0 | 0.00 | 0.00 | 0.00 | 68 | 1024.1 |
| 20260906205857 | 79 | 359 | 2.0 | 3.0 | 0.00 | 0.00 | 0.00 | 67 | 1024.1 |
| 20260906205114 | 79 | 359 | 2.0 | 3.0 | 0.00 | 0.00 | 0.00 | 67 | 1024.0 |
| 20260906204610 | 79 | 8 | 2.0 | 3.0 | 0.00 | 0.00 | 0.00 | 66 | 1024.0 |
| 20260906204112 | 79 | 4 | 2.0 | 3.0 | 0.00 | 0.00 | 0.00 | 66 | 1024.0 |
| 20260906203610 | 79 | 4 | 3.0 | 4.0 | 0.00 | 0.00 | 0.00 | 66 | 1024.0 |
| 20260906203112 | 79 | 4 | 2.0 | 4.0 | 0.00 | 0.00 | 0.00 | 66 | 1023.9 |
| 20260906202610 | 79 | 4 | 2.0 | 3.0 | 0.00 | 0.00 | 0.00 | 67 | 1024.0 |
| 20260906202110 | 79 | 4 | 2.0 | 3.0 | 0.00 | 0.00 | 0.00 | 67 | 1023.9 |
| 20260906201611 | 79 | 4 | 3.0 | 3.0 | 0.00 | 0.00 | 0.00 | 67 | 1023.9 |
| 20260906201111 | 79 | 4 | 2.0 | 3.0 | 0.00 | 0.00 | 0.00 | 68 | 1024.0 |
| 20260906200610 | 79 | 4 | 2.0 | 3.0 | 0.00 | 0.00 | 0.00 | 68 | 1024.0 |
| 20260906200106 | 79 | 4 | 2.0 | 3.0 | 0.00 | 0.00 | 0.00 | 69 | 1023.9 |
| 20260906195607 | 79 | 4 | 2.0 | 3.0 | 0.00 | 0.00 | 0.00 | 68 | 1023.9 |
| 20260906195106 | 79 | 4 | 2.0 | 3.0 | 0.00 | 0.00 | 0.00 | 68 | 1023.9 |
| 20260906194604 | 79 | 4 | 2.0 | 3.0 | 0.00 | 0.00 | 0.00 | 68 | 1023.9 |
| 20260906194104 | 79 | 4 | 2.0 | 3.0 | 0.00 | 0.00 | 0.00 | 67 | 1023.9 |
| 20260906193604 | 79 | 4 | 2.0 | 3.0 | 0.00 | 0.00 | 0.00 | 67 | 1023.9 |
| 20260906193105 | 79 | 4 | 2.0 | 3.0 | 0.00 | 0.00 | 0.00 | 67 | 1023.8 |
| 20260906192605 | 79 | 4 | 2.0 | 3.0 | 0.00 | 0.00 | 0.00 | 67 | 1023.8 |
| 20260906192107 | 79 | 4 | 1.0 | 3.0 | 0.00 | 0.00 | 0.00 | 66 | 1023.8 |
| 20260906191852 | 79 | 4 | 1.0 | 2.0 | 0.00 | 0.00 | 0.00 | 66 | 1023.7 |
| 20260906191112 | 79 | 4 | 2.0 | 3.0 | 0.00 | 0.00 | 0.00 | 66 | 1023.7 |
| 20260906190611 | 79 | 4 | 2.0 | 3.0 | 0.00 | 0.00 | 0.00 | 66 | 1023.7 |
| 20260906190121 | 79 | 4 | 2.0 | 3.0 | 0.00 | 0.00 | 0.00 | 66 | 1023.6 |
| 20260906185636 | 79 | 4 | 2.0 | 3.0 | 0.00 | 0.00 | 0.00 | 65 | 1023.6 |
| 20260906185626 | 79 | 4 | 2.0 | 3.0 | 0.00 | 0.00 | 0.00 | 66 | 1023.6 |
| 20260906184844 | 79 | 4 | 2.0 | 3.0 | 0.00 | 0.00 | 0.00 | 65 | 1023.5 |
| 20260906184104 | 79 | 4 | 2.0 | 3.0 | 0.00 | 0.00 | 0.00 | 64 | 1023.5 |
| 20260906183848 | 79 | 4 | 2.0 | 3.0 | 0.00 | 0.00 | 0.00 | 64 | 1023.4 |
| 20260906183105 | 79 | 4 | 2.0 | 3.0 | 0.00 | 0.00 | 0.00 | 64 | 1023.4 |
| 20260906182605 | 79 | 4 | 2.0 | 3.0 | 0.00 | 0.00 | 0.00 | 64 | 1023.3 |
| 20260906182113 | 79 | 4 | 2.0 | 3.0 | 0.00 | 0.00 | 0.00 | 64 | 1023.3 |
| 20260906181604 | 79 | 4 | 2.0 | 3.0 | 0.00 | 0.00 | 0.00 | 65 | 1023.3 |
| 20260906181346 | 79 | 4 | 2.0 | 3.0 | 0.00 | 0.00 | 0.00 | 65 | 1023.3 |
| 20260906180604 | 79 | 4 | 2.0 | 2.0 | 0.00 | 0.00 | 0.00 | 65 | 1023.3 |
| 20260906180117 | 79 | 4 | 2.0 | 3.0 | 0.00 | 0.00 | 0.00 | 65 | 1023.3 |
| 20260906175607 | 79 | 4 | 2.0 | 3.0 | 0.00 | 0.00 | 0.00 | 65 | 1023.3 |
| 20260906175105 | 79 | 4 | 2.0 | 3.0 | 0.00 | 0.00 | 0.00 | 65 | 1023.2 |
| 20260906174606 | 79 | 4 | 2.0 | 3.0 | 0.00 | 0.00 | 0.00 | 65 | 1023.2 |
| 20260906174105 | 79 | 4 | 2.0 | 3.0 | 0.00 | 0.00 | 0.00 | 66 | 1023.2 |
| 20260906173605 | 79 | 4 | 2.0 | 3.0 | 0.00 | 0.00 | 0.00 | 66 | 1023.2 |
| 20260906173105 | 79 | 4 | 2.0 | 3.0 | 0.00 | 0.00 | 0.00 | 65 | 1023.2 |
| 20260906172604 | 79 | 4 | 2.0 | 3.0 | 0.00 | 0.00 | 0.00 | 66 | 1023.3 |
| 20260906172105 | 79 | 4 | 2.0 | 3.0 | 0.00 | 0.00 | 0.00 | 66 | 1023.3 |
| 20260906171605 | 79 | 4 | 2.0 | 3.0 | 0.00 | 0.00 | 0.00 | 65 | 1023.2 |
| 20260906171106 | 79 | 4 | 2.0 | 3.0 | 0.00 | 0.00 | 0.00 | 65 | 1023.2 |
| 20260906170605 | 79 | 4 | 2.0 | 3.0 | 0.00 | 0.00 | 0.00 | 65 | 1023.2 |
| 20260906170106 | 79 | 4 | 2.0 | 3.0 | 0.00 | 0.00 | 0.00 | 65 | 1023.2 |
| 20260906165604 | 79 | 4 | 2.0 | 3.0 | 0.00 | 0.00 | 0.00 | 67 | 1023.2 |
| 20260906165104 | 79 | 4 | 2.0 | 3.0 | 0.00 | 0.00 | 0.00 | 67 | 1023.2 |
| 20260906164604 | 80 | 4 | 2.0 | 3.0 | 0.00 | 0.00 | 0.00 | 66 | 1023.2 |
| 20260906164108 | 80 | 4 | 2.0 | 3.0 | 0.00 | 0.00 | 0.00 | 66 | 1023.2 |
| 20260906163604 | 80 | 4 | 2.0 | 3.0 | 0.00 | 0.00 | 0.00 | 67 | 1023.2 |
| 20260906163105 | 80 | 4 | 2.0 | 3.0 | 0.00 | 0.00 | 0.00 | 67 | 1023.1 |
| 20260906162600 | 80 | 4 | 2.0 | 3.0 | 0.00 | 0.00 | 0.00 | 66 | 1023.1 |
| 20260906162053 | 80 | 4 | 2.0 | 3.0 | 0.00 | 0.00 | 0.00 | 66 | 1023.1 |
| 20260906161550 | 80 | 4 | 2.0 | 4.0 | 0.00 | 0.00 | 0.00 | 66 | 1023.0 |
| 20260906161348 | 80 | 4 | 2.0 | 4.0 | 0.00 | 0.00 | 0.00 | 66 | 1023.0 |
| 20260906160550 | 80 | 8 | 2.0 | 3.0 | 0.00 | 0.00 | 0.00 | 66 | 1023.0 |
| 20260906160047 | 80 | 21 | 2.0 | 3.0 | 0.00 | 0.00 | 0.00 | 66 | 1023.0 |
| 20260906155546 | 80 | 16 | 2.0 | 3.0 | 0.00 | 0.00 | 0.00 | 66 | 1022.9 |
| 20260906155125 | 80 | 11 | 2.0 | 3.0 | 0.00 | 0.00 | 0.00 | 65 | 1023.0 |
| 20260906155103 | 80 | 16 | 2.0 | 3.0 | 0.00 | 0.00 | 0.00 | 67 | 1022.9 |
| 20260906154043 | 80 | 10 | 1.0 | 3.0 | 0.00 | 0.00 | 0.00 | 66 | 1022.9 |
| 20260906153541 | 80 | 10 | 2.0 | 3.0 | 0.00 | 0.00 | 0.00 | 65 | 1023.0 |
| 20260906153038 | 80 | 10 | 2.0 | 3.0 | 0.00 | 0.00 | 0.00 | 65 | 1023.1 |
| 20260906152826 | 80 | 10 | 2.0 | 3.0 | 0.00 | 0.00 | 0.00 | 65 | 1023.1 |
| 20260906152033 | 80 | 10 | 2.0 | 3.0 | 0.00 | 0.00 | 0.00 | 65 | 1023.1 |
| 20260906151543 | 81 | 10 | 2.0 | 3.0 | 0.00 | 0.00 | 0.00 | 65 | 1023.1 |
| 20260906151038 | 81 | 10 | 2.0 | 3.0 | 0.00 | 0.00 | 0.00 | 65 | 1023.1 |
| 20260906150529 | 81 | 33 | 2.0 | 3.0 | 0.00 | 0.00 | 0.00 | 65 | 1023.1 |
| 20260906150336 | 82 | 33 | 1.0 | 3.0 | 0.00 | 0.00 | 0.00 | 65 | 1023.1 |
| 20260906145523 | 82 | 33 | 1.0 | 2.0 | 0.00 | 0.00 | 0.00 | 65 | 1023.1 |
| 20260906145021 | 82 | 33 | 2.0 | 3.0 | 0.00 | 0.00 | 0.00 | 65 | 1023.1 |
| 20260906144522 | 83 | 33 | 2.0 | 3.0 | 0.00 | 0.00 | 0.00 | 64 | 1023.1 |
| 20260906144019 | 83 | 33 | 1.0 | 2.0 | 0.00 | 0.00 | 0.00 | 64 | 1023.1 |
| 20260906143514 | 84 | 33 | 1.0 | 2.0 | 0.00 | 0.00 | 0.00 | 63 | 1023.1 |
| 20260906143059 | 85 | 33 | 1.0 | 3.0 | 0.00 | 0.00 | 0.00 | 63 | 1023.2 |
| 20260906143035 | 85 | 33 | 1.0 | 3.0 | 0.00 | 0.00 | 0.00 | 63 | 1023.2 |
| 20260906142014 | 86 | 33 | 1.0 | 3.0 | 0.00 | 0.00 | 0.00 | 62 | 1023.2 |
| 20260906141509 | 86 | 33 | 1.0 | 3.0 | 0.00 | 0.00 | 0.00 | 62 | 1023.3 |
| 20260906141013 | 86 | 33 | 1.0 | 3.0 | 0.00 | 0.00 | 0.00 | 61 | 1023.2 |
| 20260906140506 | 87 | 134 | 1.0 | 3.0 | 0.00 | 0.00 | 0.00 | 60 | 1023.2 |
| 20260906140009 | 87 | 134 | 1.0 | 3.0 | 0.00 | 0.00 | 0.00 | 61 | 1023.2 |
| 20260906135507 | 86 | 134 | 1.0 | 3.0 | 0.00 | 0.00 | 0.00 | 60 | 1023.3 |
| 20260906135008 | 86 | 135 | 1.0 | 4.0 | 0.00 | 0.00 | 0.00 | 60 | 1023.3 |
| 20260906134512 | 86 | 135 | 1.0 | 4.0 | 0.00 | 0.00 | 0.00 | 59 | 1023.3 |
| 20260906134009 | 86 | 129 | 2.0 | 6.0 | 0.00 | 0.00 | 0.00 | 58 | 1023.4 |
| 20260906133505 | 85 | 125 | 2.0 | 6.0 | 0.00 | 0.00 | 0.00 | 58 | 1023.4 |
| 20260906133006 | 85 | 117 | 2.0 | 5.0 | 0.00 | 0.00 | 0.00 | 59 | 1023.4 |
| 20260906132502 | 85 | 162 | 2.0 | 6.0 | 0.00 | 0.00 | 0.00 | 61 | 1023.4 |
| 20260906132002 | 85 | 137 | 3.0 | 6.0 | 0.00 | 0.00 | 0.00 | 60 | 1023.5 |
| 20260906131505 | 85 | 197 | 2.0 | 6.0 | 0.00 | 0.00 | 0.00 | 61 | 1023.4 |
| 20260906131000 | 85 | 138 | 2.0 | 6.0 | 0.00 | 0.00 | 0.00 | 60 | 1023.4 |
| 20260906130500 | 85 | 164 | 3.0 | 6.0 | 0.00 | 0.00 | 0.00 | 61 | 1023.4 |
| 20260906125957 | 85 | 163 | 3.0 | 6.0 | 0.00 | 0.00 | 0.00 | 61 | 1023.5 |
| 20260906125501 | 85 | 154 | 2.0 | 7.0 | 0.00 | 0.00 | 0.00 | 63 | 1023.5 |
| 20260906124956 | 85 | 165 | 3.0 | 7.0 | 0.00 | 0.00 | 0.00 | 63 | 1023.5 |
| 20260906124454 | 85 | 66 | 3.0 | 7.0 | 0.00 | 0.00 | 0.00 | 63 | 1023.5 |
| 20260906123953 | 85 | 137 | 3.0 | 7.0 | 0.00 | 0.00 | 0.00 | 63 | 1023.4 |
| 20260906123455 | 85 | 181 | 2.0 | 7.0 | 0.00 | 0.00 | 0.00 | 63 | 1023.4 |
| 20260906122951 | 85 | 93 | 2.0 | 7.0 | 0.00 | 0.00 | 0.00 | 63 | 1023.4 |
| 20260906122451 | 84 | 137 | 3.0 | 8.0 | 0.00 | 0.00 | 0.00 | 67 | 1023.4 |
| 20260906121951 | 84 | 141 | 4.0 | 8.0 | 0.00 | 0.00 | 0.00 | 65 | 1023.4 |
| 20260906121449 | 84 | 201 | 3.0 | 8.0 | 0.00 | 0.00 | 0.00 | 66 | 1023.4 |
| 20260906120951 | 84 | 169 | 3.0 | 8.0 | 0.00 | 0.00 | 0.00 | 67 | 1023.3 |
| 20260906120448 | 84 | 155 | 3.0 | 8.0 | 0.00 | 0.00 | 0.00 | 67 | 1023.4 |
| 20260906115948 | 84 | 144 | 2.0 | 7.0 | 0.00 | 0.00 | 0.00 | 64 | 1023.3 |
| 20260906115733 | 84 | 116 | 2.0 | 7.0 | 0.00 | 0.00 | 0.00 | 65 | 1023.4 |
| 20260906114947 | 84 | 164 | 3.0 | 6.0 | 0.00 | 0.00 | 0.00 | 65 | 1023.4 |
| 20260906114446 | 84 | 164 | 3.0 | 8.0 | 0.00 | 0.00 | 0.00 | 67 | 1023.3 |
| 20260906113947 | 84 | 114 | 3.0 | 9.0 | 0.00 | 0.00 | 0.00 | 67 | 1023.3 |
| 20260906113445 | 84 | 118 | 3.0 | 9.0 | 0.00 | 0.00 | 0.00 | 66 | 1023.4 |
| 20260906112943 | 85 | 95 | 2.0 | 7.0 | 0.00 | 0.00 | 0.00 | 68 | 1023.3 |
| 20260906112443 | 84 | 172 | 2.0 | 7.0 | 0.00 | 0.00 | 0.00 | 68 | 1023.3 |
| 20260906111945 | 84 | 201 | 2.0 | 5.0 | 0.00 | 0.00 | 0.00 | 68 | 1023.3 |
| 20260906111443 | 83 | 112 | 3.0 | 9.0 | 0.00 | 0.00 | 0.00 | 68 | 1023.3 |
| 20260906110941 | 83 | 127 | 2.0 | 9.0 | 0.00 | 0.00 | 0.00 | 68 | 1023.3 |
| 20260906110454 | 83 | 134 | 2.0 | 6.0 | 0.00 | 0.00 | 0.00 | 68 | 1023.4 |
| 20260906105940 | 83 | 174 | 2.0 | 6.0 | 0.00 | 0.00 | 0.00 | 67 | 1023.4 |
| 20260906105440 | 83 | 76 | 2.0 | 7.0 | 0.00 | 0.00 | 0.00 | 68 | 1023.4 |
| 20260906104941 | 83 | 201 | 2.0 | 7.0 | 0.00 | 0.00 | 0.00 | 69 | 1023.4 |
| 20260906104438 | 82 | 149 | 3.0 | 7.0 | 0.00 | 0.00 | 0.00 | 69 | 1023.4 |
| 20260906103938 | 83 | 121 | 2.0 | 7.0 | 0.00 | 0.00 | 0.00 | 69 | 1023.4 |
| 20260906103438 | 82 | 127 | 2.0 | 5.0 | 0.00 | 0.00 | 0.00 | 70 | 1023.4 |
| 20260906102938 | 82 | 152 | 3.0 | 5.0 | 0.00 | 0.00 | 0.00 | 71 | 1023.4 |
| 20260906102439 | 82 | 163 | 3.0 | 5.0 | 0.00 | 0.00 | 0.00 | 72 | 1023.4 |
| 20260906102243 | 81 | 206 | 3.0 | 7.0 | 0.00 | 0.00 | 0.00 | 71 | 1023.4 |
| 20260906102239 | 81 | 134 | 3.0 | 6.0 | 0.00 | 0.00 | 0.00 | 71 | 1023.4 |
| 20260906100934 | 82 | 124 | 3.0 | 7.0 | 0.00 | 0.00 | 0.00 | 70 | 1023.5 |
| 20260906100435 | 82 | 161 | 2.0 | 6.0 | 0.00 | 0.00 | 0.00 | 70 | 1023.5 |
| 20260906095933 | 82 | 168 | 3.0 | 6.0 | 0.00 | 0.00 | 0.00 | 70 | 1023.5 |
| 20260906095431 | 82 | 110 | 2.0 | 6.0 | 0.00 | 0.00 | 0.00 | 70 | 1023.5 |
| 20260906094921 | 82 | 108 | 2.0 | 5.0 | 0.00 | 0.00 | 0.00 | 70 | 1023.5 |
| 20260906094415 | 82 | 162 | 2.0 | 6.0 | 0.00 | 0.00 | 0.00 | 69 | 1023.5 |
| 20260906093908 | 81 | 188 | 2.0 | 6.0 | 0.00 | 0.00 | 0.00 | 69 | 1023.5 |
| 20260906093411 | 81 | 158 | 2.0 | 5.0 | 0.00 | 0.00 | 0.00 | 69 | 1023.5 |
| 20260906093143 | 81 | 110 | 2.0 | 5.0 | 0.00 | 0.00 | 0.00 | 68 | 1023.5 |
| 20260906092407 | 81 | 108 | 2.0 | 5.0 | 0.00 | 0.00 | 0.00 | 68 | 1023.5 |
| 20260906091907 | 81 | 162 | 2.0 | 5.0 | 0.00 | 0.00 | 0.00 | 68 | 1023.6 |
| 20260906091406 | 81 | 185 | 2.0 | 6.0 | 0.00 | 0.00 | 0.00 | 68 | 1023.6 |
| 20260906091150 | 81 | 131 | 2.0 | 6.0 | 0.00 | 0.00 | 0.00 | 69 | 1023.6 |
| 20260906090406 | 81 | 183 | 2.0 | 5.0 | 0.00 | 0.00 | 0.00 | 68 | 1023.6 |
| 20260906085907 | 81 | 87 | 2.0 | 5.0 | 0.00 | 0.00 | 0.00 | 68 | 1023.5 |
| 20260906085407 | 81 | 177 | 2.0 | 5.0 | 0.00 | 0.00 | 0.00 | 67 | 1023.5 |
| 20260906084907 | 81 | 156 | 2.0 | 5.0 | 0.00 | 0.00 | 0.00 | 67 | 1023.5 |
| 20260906084406 | 81 | 155 | 2.0 | 4.0 | 0.00 | 0.00 | 0.00 | 69 | 1023.5 |
| 20260906083906 | 81 | 166 | 2.0 | 4.0 | 0.00 | 0.00 | 0.00 | 68 | 1023.5 |
| 20260906083406 | 80 | 172 | 1.0 | 4.0 | 0.00 | 0.00 | 0.00 | 66 | 1023.5 |
| 20260906082921 | 80 | 147 | 1.0 | 2.0 | 0.00 | 0.00 | 0.00 | 68 | 1023.5 |
| 20260906082359 | 79 | 122 | 1.0 | 4.0 | 0.00 | 0.00 | 0.00 | 70 | 1023.5 |
| 20260906081852 | 79 | 120 | 1.0 | 4.0 | 0.00 | 0.00 | 0.00 | 71 | 1023.5 |
| 20260906081351 | 79 | 121 | 2.0 | 5.0 | 0.00 | 0.00 | 0.00 | 72 | 1023.4 |
| 20260906080853 | 79 | 120 | 2.0 | 5.0 | 0.00 | 0.00 | 0.00 | 72 | 1023.4 |
| 20260906080352 | 78 | 156 | 2.0 | 5.0 | 0.00 | 0.00 | 0.00 | 72 | 1023.3 |
| 20260906075851 | 79 | 107 | 2.0 | 5.0 | 0.00 | 0.00 | 0.00 | 72 | 1023.3 |
| 20260906075351 | 79 | 155 | 2.0 | 5.0 | 0.00 | 0.00 | 0.00 | 72 | 1023.3 |
| 20260906074943 | 78 | 155 | 2.0 | 5.0 | 0.00 | 0.00 | 0.00 | 71 | 1023.3 |
| 20260906074928 | 78 | 155 | 2.0 | 5.0 | 0.00 | 0.00 | 0.00 | 71 | 1023.3 |
| 20260906073851 | 78 | 156 | 2.0 | 3.0 | 0.00 | 0.00 | 0.00 | 71 | 1023.3 |
| 20260906073349 | 78 | 156 | 1.0 | 3.0 | 0.00 | 0.00 | 0.00 | 71 | 1023.2 |
| 20260906072848 | 78 | 156 | 1.0 | 3.0 | 0.00 | 0.00 | 0.00 | 71 | 1023.2 |
| 20260906072346 | 77 | 156 | 1.0 | 3.0 | 0.00 | 0.00 | 0.00 | 71 | 1023.1 |
| 20260906071845 | 77 | 156 | 1.0 | 4.0 | 0.00 | 0.00 | 0.00 | 70 | 1023.2 |
| 20260906071347 | 76 | 156 | 1.0 | 4.0 | 0.00 | 0.00 | 0.00 | 70 | 1023.1 |
| 20260906070843 | 76 | 158 | 2.0 | 4.0 | 0.00 | 0.00 | 0.00 | 71 | 1023.1 |
| 20260906070343 | 76 | 158 | 1.0 | 4.0 | 0.00 | 0.00 | 0.00 | 71 | 1023.1 |
| 20260906065843 | 76 | 158 | 1.0 | 4.0 | 0.00 | 0.00 | 0.00 | 71 | 1023.1 |
| 20260906065344 | 76 | 158 | 1.0 | 4.0 | 0.00 | 0.00 | 0.00 | 71 | 1023.0 |
| 20260906064840 | 76 | 158 | 1.0 | 4.0 | 0.00 | 0.00 | 0.00 | 70 | 1023.0 |
| 20260906064339 | 75 | 158 | 1.0 | 4.0 | 0.00 | 0.00 | 0.00 | 70 | 1023.0 |
| 20260906063839 | 75 | 158 | 1.0 | 4.0 | 0.00 | 0.00 | 0.00 | 70 | 1022.9 |
| 20260906063339 | 75 | 91 | 1.0 | 3.0 | 0.00 | 0.00 | 0.00 | 70 | 1022.9 |
| 20260906062837 | 75 | 91 | 1.0 | 3.0 | 0.00 | 0.00 | 0.00 | 70 | 1022.9 |
| 20260906062337 | 74 | 91 | 1.0 | 3.0 | 0.00 | 0.00 | 0.00 | 70 | 1022.8 |
| 20260906062139 | 74 | 91 | 1.0 | 2.0 | 0.00 | 0.00 | 0.00 | 70 | 1022.8 |
| 20260906061342 | 74 | 91 | 1.0 | 3.0 | 0.00 | 0.00 | 0.00 | 70 | 1022.8 |
| 20260906060837 | 74 | 91 | 1.0 | 3.0 | 0.00 | 0.00 | 0.00 | 70 | 1022.8 |
| 20260906060333 | 74 | 30 | 1.0 | 2.0 | 0.00 | 0.00 | 0.00 | 69 | 1022.7 |
| 20260906055832 | 74 | 30 | 1.0 | 2.0 | 0.00 | 0.00 | 0.00 | 69 | 1022.6 |
| 20260906055333 | 74 | 29 | 1.0 | 2.0 | 0.00 | 0.00 | 0.00 | 69 | 1022.6 |
| 20260906054833 | 73 | 29 | 0.0 | 2.0 | 0.00 | 0.00 | 0.00 | 69 | 1022.5 |
| 20260906054332 | 73 | 337 | 0.0 | 2.0 | 0.00 | 0.00 | 0.00 | 69 | 1022.6 |
| 20260906053833 | 72 | 337 | 0.0 | 2.0 | 0.00 | 0.00 | 0.00 | 70 | 1022.6 |
| 20260906053344 | 72 | 337 | 0.0 | 1.0 | 0.00 | 0.00 | 0.00 | 70 | 1022.5 |
| 20260906052833 | 71 | 337 | 0.0 | 0.0 | 0.00 | 0.00 | 0.00 | 71 | 1022.5 |
| 20260906052620 | 71 | 337 | 0.0 | 0.0 | 0.00 | 0.00 | 0.00 | 71 | 1022.5 |
| 20260906051832 | 70 | 337 | 0.0 | 1.0 | 0.00 | 0.00 | 0.00 | 71 | 1022.5 |
| 20260906051332 | 70 | 337 | 1.0 | 2.0 | 0.00 | 0.00 | 0.00 | 71 | 1022.4 |
| 20260906050831 | 70 | 337 | 1.0 | 2.0 | 0.00 | 0.00 | 0.00 | 71 | 1022.4 |
| 20260906050329 | 70 | 337 | 1.0 | 2.0 | 0.00 | 0.00 | 0.00 | 71 | 1022.3 |
| 20260906045832 | 70 | 337 | 1.0 | 3.0 | 0.00 | 0.00 | 0.00 | 71 | 1022.2 |
| 20260906045609 | 70 | 337 | 1.0 | 3.0 | 0.00 | 0.00 | 0.00 | 71 | 1022.2 |
| 20260906045115 | 70 | 335 | 1.0 | 2.0 | 0.00 | 0.00 | 0.00 | 71 | 1022.1 |
| 20260906044325 | 70 | 335 | 1.0 | 2.0 | 0.00 | 0.00 | 0.00 | 70 | 1022.1 |
| 20260906043859 | 70 | 335 | 1.0 | 3.0 | 0.00 | 0.00 | 0.00 | 70 | 1022.0 |
| 20260906043841 | 70 | 335 | 1.0 | 2.0 | 0.00 | 0.00 | 0.00 | 70 | 1022.1 |
| 20260906042825 | 70 | 335 | 1.0 | 4.0 | 0.00 | 0.00 | 0.00 | 71 | 1021.8 |
| 20260906042327 | 70 | 335 | 1.0 | 4.0 | 0.00 | 0.00 | 0.00 | 71 | 1021.8 |
| 20260906041824 | 70 | 335 | 1.0 | 2.0 | 0.00 | 0.00 | 0.00 | 71 | 1021.7 |
| 20260906041325 | 70 | 335 | 1.0 | 2.0 | 0.00 | 0.00 | 0.00 | 71 | 1021.6 |
| 20260906040826 | 70 | 336 | 1.0 | 2.0 | 0.00 | 0.00 | 0.00 | 71 | 1021.6 |
| 20260906040322 | 70 | 336 | 1.0 | 2.0 | 0.00 | 0.00 | 0.00 | 71 | 1021.6 |
| 20260906035820 | 70 | 336 | 2.0 | 3.0 | 0.00 | 0.00 | 0.00 | 71 | 1021.5 |
| 20260906035321 | 70 | 336 | 2.0 | 3.0 | 0.00 | 0.00 | 0.00 | 72 | 1021.5 |
| 20260906034821 | 70 | 328 | 1.0 | 3.0 | 0.00 | 0.00 | 0.00 | 73 | 1021.5 |
| 20260906034322 | 70 | 328 | 1.0 | 3.0 | 0.00 | 0.00 | 0.00 | 73 | 1021.4 |
| 20260906033821 | 70 | 328 | 1.0 | 2.0 | 0.00 | 0.00 | 0.00 | 72 | 1021.4 |
| 20260906033321 | 70 | 328 | 1.0 | 2.0 | 0.00 | 0.00 | 0.00 | 72 | 1021.4 |
| 20260906032822 | 70 | 328 | 1.0 | 3.0 | 0.00 | 0.00 | 0.00 | 73 | 1021.4 |
| 20260906032321 | 70 | 328 | 2.0 | 3.0 | 0.00 | 0.00 | 0.00 | 73 | 1021.4 |
| 20260906032057 | 70 | 328 | 1.0 | 3.0 | 0.00 | 0.00 | 0.00 | 73 | 1021.4 |
| 20260906031321 | 70 | 328 | 1.0 | 3.0 | 0.00 | 0.00 | 0.00 | 73 | 1021.4 |
| 20260906030817 | 70 | 328 | 1.0 | 3.0 | 0.00 | 0.00 | 0.00 | 73 | 1021.4 |
| 20260906030312 | 70 | 328 | 1.0 | 2.0 | 0.00 | 0.00 | 0.00 | 73 | 1021.3 |
| 20260906025812 | 70 | 328 | 1.0 | 2.0 | 0.00 | 0.00 | 0.00 | 73 | 1021.3 |
| 20260906025311 | 70 | 328 | 1.0 | 2.0 | 0.00 | 0.00 | 0.00 | 73 | 1021.3 |
| 20260906024806 | 70 | 313 | 1.0 | 2.0 | 0.00 | 0.00 | 0.00 | 73 | 1021.4 |
| 20260906024305 | 70 | 313 | 1.0 | 2.0 | 0.00 | 0.00 | 0.00 | 73 | 1021.3 |
| 20260906024102 | 70 | 313 | 1.0 | 3.0 | 0.00 | 0.00 | 0.00 | 73 | 1021.4 |
| 20260906023553 | 70 | 313 | 1.0 | 3.0 | 0.00 | 0.00 | 0.00 | 73 | 1021.4 |
| 20260906022810 | 71 | 313 | 0.0 | 2.0 | 0.00 | 0.00 | 0.00 | 72 | 1021.4 |
| 20260906022554 | 71 | 313 | 0.0 | 1.0 | 0.00 | 0.00 | 0.00 | 72 | 1021.5 |
| 20260906021805 | 71 | 313 | 0.0 | 2.0 | 0.00 | 0.00 | 0.00 | 72 | 1021.5 |
| 20260906021259 | 71 | 313 | 1.0 | 2.0 | 0.00 | 0.00 | 0.00 | 73 | 1021.5 |
| 20260906020754 | 71 | 313 | 1.0 | 4.0 | 0.00 | 0.00 | 0.00 | 73 | 1021.4 |
| 20260906020243 | 71 | 272 | 1.0 | 4.0 | 0.00 | 0.00 | 0.00 | 72 | 1021.4 |
| 20260906015828 | 71 | 242 | 0.0 | 2.0 | 0.00 | 0.00 | 0.00 | 71 | 1021.4 |
| 20260906015809 | 71 | 229 | 1.0 | 3.0 | 0.00 | 0.00 | 0.00 | 72 | 1021.4 |
| 20260906014737 | 71 | 242 | 1.0 | 3.0 | 0.00 | 0.00 | 0.00 | 71 | 1021.4 |
| 20260906014237 | 71 | 242 | 1.0 | 3.0 | 0.00 | 0.00 | 0.00 | 71 | 1021.5 |
| 20260906013736 | 72 | 183 | 1.0 | 3.0 | 0.00 | 0.00 | 0.00 | 71 | 1021.5 |
| 20260906013235 | 71 | 183 | 2.0 | 3.0 | 0.00 | 0.00 | 0.00 | 71 | 1021.4 |
| 20260906013018 | 72 | 305 | 2.0 | 3.0 | 0.00 | 0.00 | 0.00 | 70 | 1021.3 |
| 20260906012233 | 72 | 305 | 2.0 | 3.0 | 0.00 | 0.00 | 0.00 | 70 | 1021.3 |
| 20260906011735 | 72 | 305 | 2.0 | 3.0 | 0.00 | 0.00 | 0.00 | 70 | 1021.4 |
| 20260906011515 | 72 | 305 | 2.0 | 3.0 | 0.00 | 0.00 | 0.00 | 70 | 1021.3 |
| 20260906010731 | 72 | 289 | 2.0 | 3.0 | 0.00 | 0.00 | 0.00 | 70 | 1021.4 |
| 20260906010234 | 72 | 280 | 2.0 | 3.0 | 0.00 | 0.00 | 0.00 | 69 | 1021.4 |
| 20260906005731 | 71 | 287 | 2.0 | 3.0 | 0.00 | 0.00 | 0.00 | 70 | 1021.3 |
| 20260906005231 | 71 | 287 | 2.0 | 2.0 | 0.00 | 0.00 | 0.00 | 70 | 1021.4 |
| 20260906004731 | 71 | 287 | 1.0 | 2.0 | 0.00 | 0.00 | 0.00 | 70 | 1021.3 |
| 20260906004230 | 71 | 282 | 1.0 | 2.0 | 0.00 | 0.00 | 0.00 | 70 | 1021.4 |
| 20260906003731 | 72 | 282 | 1.0 | 2.0 | 0.00 | 0.00 | 0.00 | 70 | 1021.5 |
| 20260906003230 | 72 | 282 | 0.0 | 2.0 | 0.00 | 0.00 | 0.00 | 70 | 1021.5 |
| 20260906003028 | 72 | 282 | 1.0 | 2.0 | 0.00 | 0.00 | 0.00 | 70 | 1021.4 |
| 20260906002518 | 72 | 282 | 2.0 | 3.0 | 0.00 | 0.00 | 0.00 | 70 | 1021.4 |
| 20260906001725 | 72 | 282 | 2.0 | 3.0 | 0.00 | 0.00 | 0.00 | 70 | 1021.5 |
| 20260906001218 | 72 | 282 | 1.0 | 2.0 | 0.00 | 0.00 | 0.00 | 70 | 1021.6 |
| 20260906000952 | 72 | 282 | 1.0 | 2.0 | 0.00 | 0.00 | 0.00 | 70 | 1021.5 |
| 20260906000214 | 72 | 282 | 1.0 | 2.0 | 0.00 | 0.00 | 0.00 | 70 | 1021.5 |
| 20260905235953 | 72 | 282 | 1.0 | 2.0 | 0.00 | 0.00 | 0.00 | 70 | 1021.5 |
| 20260905235209 | 72 | 282 | 1.0 | 2.0 | 0.00 | 0.00 | 0.00 | 70 | 1021.5 |
| 20260905234709 | 72 | 282 | 1.0 | 2.0 | 0.00 | 0.00 | 0.00 | 70 | 1021.6 |
| 20260905234208 | 72 | 282 | 1.0 | 2.0 | 0.00 | 0.00 | 0.00 | 70 | 1021.5 |
| 20260905233707 | 72 | 282 | 1.0 | 2.0 | 0.00 | 0.00 | 0.00 | 70 | 1021.5 |
| 20260905233207 | 72 | 282 | 2.0 | 2.0 | 0.00 | 0.00 | 0.00 | 70 | 1021.6 |
| 20260905232948 | 72 | 282 | 1.0 | 2.0 | 0.00 | 0.00 | 0.00 | 70 | 1021.6 |
| 20260905232209 | 72 | 282 | 1.0 | 2.0 | 0.00 | 0.00 | 0.00 | 70 | 1021.7 |
| 20260905231947 | 72 | 282 | 2.0 | 2.0 | 0.00 | 0.00 | 0.00 | 71 | 1021.7 |
| 20260905231205 | 72 | 282 | 1.0 | 2.0 | 0.00 | 0.00 | 0.00 | 71 | 1021.8 |
| 20260905230705 | 71 | 282 | 1.0 | 2.0 | 0.00 | 0.00 | 0.00 | 71 | 1021.8 |
| 20260905230208 | 71 | 282 | 1.0 | 2.0 | 0.00 | 0.00 | 0.00 | 71 | 1022.0 |
| 20260905225704 | 71 | 282 | 1.0 | 2.0 | 0.00 | 0.00 | 0.00 | 71 | 1021.8 |
| 20260905225159 | 71 | 282 | 1.0 | 2.0 | 0.00 | 0.00 | 0.00 | 72 | 1021.8 |
| 20260905224700 | 71 | 282 | 1.0 | 3.0 | 0.00 | 0.00 | 0.00 | 72 | 1021.8 |
| 20260905224449 | 71 | 282 | 1.0 | 3.0 | 0.00 | 0.00 | 0.00 | 73 | 1021.8 |
| 20260905223656 | 71 | 282 | 2.0 | 3.0 | 0.00 | 0.00 | 0.00 | 74 | 1021.8 |
| 20260905223158 | 71 | 282 | 2.0 | 3.0 | 0.00 | 0.00 | 0.00 | 74 | 1021.8 |
| 20260905222655 | 71 | 278 | 1.0 | 2.0 | 0.00 | 0.00 | 0.00 | 74 | 1021.8 |
| 20260905222153 | 71 | 278 | 1.0 | 2.0 | 0.00 | 0.00 | 0.00 | 74 | 1021.8 |
| 20260905221653 | 71 | 278 | 1.0 | 2.0 | 0.00 | 0.00 | 0.00 | 74 | 1021.8 |
| 20260905221233 | 71 | 278 | 1.0 | 2.0 | 0.00 | 0.00 | 0.00 | 74 | 1021.8 |
| 20260905221206 | 71 | 278 | 1.0 | 2.0 | 0.00 | 0.00 | 0.00 | 74 | 1021.7 |